Location: Rotheul
(50.2849°N, 11.2349°E)
Time: 02:58:07
(UTC+01:00)

Envisat - Pass Details

Date: 22 October 2019
Orbit: 764 x 766 km, 98.1° (Epoch: 14 November)

Event Time Altitude Azimuth Distance (km) Brightness Sun altitude
Rises 06:57:37 0° 27° (NNE) 3,244 6.5 -8.7°
Reaches altitude 10° 07:00:42 10° 46° (NE) 2,311 6.1 -8.2°
Maximum altitude 07:04:07 18° 88° (E) 1,822 6.3 -7.7°
Drops below altitude 10° 07:07:30 10° 131° (SE) 2,299 6.5 -7.2°
Sets 07:10:32 0° 150° (SSE) 3,219 6.9 -6.7°
